Regional Weather Roundup
Issued by NWS

Home | Current Version | Previous Version | Graphics & Text | Print | Product List | Glossary On
Versions: 1 2 3 4 5 6 7 8 9 10 11 12 13 14 15 16 17 18 19 20 21 22 23 24 25 26 27 28 29 30 31 32 33 34 35 36 37 38 39 40 41 42 43 44 45 46 47 48 49 50
000
ASUS45 KPSR 301110
RWRAZ

ARIZONA HOURLY REGIONAL WEATHER ROUNDUP
NATIONAL WEATHER SERVICE PHOENIX AZ
400 AM MST FRI SEP 30 2016

NOTE: FAIR INDICATES FEW OR NO CLOUDS BELOW 12,000 FEET WITH NO
SIGNIFICANT WEATHER AND/OR OBSTRUCTIONS TO VISIBILITY.

AZZ001>003-036-301200-
NORTHWEST ARIZONA

CITY           SKY/WX    TMP DP  RH WIND       PRES   REMARKS
BULLHEAD CITY  CLEAR     77  48  36 E5        30.01S
KINGMAN        CLEAR     67  51  56 SE9       30.17S
$$

AZZ004>008-015-016-018-301200-
NORTH CENTRAL ARIZONA

CITY           SKY/WX    TMP DP  RH WIND       PRES   REMARKS
GRAND CANYON   PTCLDY    46  44  93 CALM      30.37R
PRESCOTT       CLEAR     52  49  89 S8        30.28S
FLAGSTAFF      MOCLDY    47  46  97 CALM      30.39S FOG
PAYSON         CLEAR     59  50  72 E5        30.32S
PAGE           CLOUDY    61  56  83 CALM      30.26F
$$

AZZ009>014-017-301200-
NORTHEAST ARIZONA

CITY           SKY/WX    TMP DP  RH WIND       PRES   REMARKS
WINSLOW        CLEAR     49  47  93 CALM      30.30S
SAINT JOHNS    FOG       52  51  97 S3        30.32S VSB 1/4
WINDOW ROCK    FOG       45  42  89 CALM      30.38F VSB 1
SHOW LOW       CLEAR     48  46  93 S7        30.36F
$$

AZZ023-301200-
GREATER PHOENIX AREA

CITY           SKY/WX    TMP DP  RH WIND       PRES   REMARKS
PHOENIX        CLEAR     77  60  55 E8        30.02S
BUCKEYE        CLEAR     77  55  47 E7        30.03R
LUKE AFB       CLEAR     73  58  58 N8        30.02S
DEER VALLEY    CLEAR     75  54  47 NE7       30.04S
SCOTTSDALE     CLEAR     74  57  55 CALM      30.06R
MESA-GATEWAY   CLEAR     70  57  64 SE3       30.05S
$$

AZZ027-028-301200-
SOUTHWEST MARICOPA COUNTY AND PINAL COUNTY

CITY           SKY/WX    TMP DP  RH WIND       PRES   REMARKS
CASA GRANDE    CLEAR     73  59  60 NE7       30.05F
GILA BEND      FAIR      76  54  46 NE6       29.98F
$$

AZZ503-504-507>509-301200-
SOUTHEAST ARIZONA

CITY           SKY/WX    TMP DP  RH WIND       PRES   REMARKS
TUCSON         CLEAR     70  61  73 CALM      30.12S
DAVIS-MONTHAN  CLEAR     69  60  73 SE13      30.12S
NOGALES        CLEAR     62  59  90 S5        30.19S
SIERRA VISTA   PTCLDY    60  58  94 CALM      30.27S
DOUGLAS        PTCLDY    60  59  96 NW5       30.24R
SAFFORD        CLEAR     63  61  93 SE7       30.21S
$$

AZZ020-021-025-026-031-301200-
SOUTHWEST ARIZONA

CITY           SKY/WX    TMP DP  RH WIND       PRES   REMARKS
YUMA           NOT AVBL
$$

CAZ031-033-041-043-047-048-061-301200-
SOUTHERN CALIFORNIA

CITY           SKY/WX    TMP DP  RH WIND       PRES   REMARKS
DOWNTOWN L.A.  CLEAR     68  62  81 CALM      30.01F
L.A. AIRPORT   CLEAR     68  63  84 CALM      30.01F
SAN DIEGO      PTCLDY    72  64  76 NW6       30.02S
BURBANK        CLEAR     70  50  49 CALM      30.03S
ONTARIO        CLEAR     71  53  52 CALM      30.04S
RIVERSIDE      CLEAR     69  56  62 NE5       30.03F
PALM SPRINGS   PTCLDY    77  56  48 W3        29.99S
EL CENTRO NAS  PTCLDY    75  53  46 SW8       29.95F
IMPERIAL       PTCLDY    76  57  51 W6        29.93S
BLYTHE         CLEAR     74  47  38 N7        29.97S
NEEDLES        CLEAR     78  48  34 NW6       30.01S
$$

NVZ020-UTZ003-301200-
SOUTHERN NEVADA-UTAH

CITY           SKY/WX    TMP DP  RH WIND       PRES   REMARKS
LAS VEGAS      MOCLDY    76  46  34 W3        30.08R
SALT LAKE CITY MOCLDY    64  51  62 SE12      30.17S
$$

NMZ009-TXZ055-301200-
NEW MEXICO-WEST TEXAS

CITY           SKY/WX    TMP DP  RH WIND       PRES   REMARKS
ALBUQUERQUE    CLOUDY    60  54  80 VRB5      30.34S
EL PASO        CLOUDY    64  52  64 N21       30.26R
$$


........................KEY........................
SKY/WX - SKY CONDITION/WEATHER
TMP    - TEMPERATURE IN FAHRENHEIT
DP     - DEW POINT IN FAHRENHEIT
RH     - RELATIVE HUMIDITY IN PERCENT
WIND   - DIRECTION AND SPEED IN MILES PER HOUR (MPH)
VRB    - VARIABLE WIND DIRECTION
PRES   - MEAN SEA LEVEL PRESSURE IN INCHES OF MERCURY
         F - FALLING PRESSURE   R - RISING PRESSURE
         S - STEADY PRESSURE
VSB    - VISIBILITY IN MILES
HX     - HEAT INDEX IN FAHRENHEIT
WCI    - WIND CHILL INDEX IN FAHRENHEIT
TC     - TEMPERATURE IN CELSIUS WHICH IS ALSO KNOWN AS
         TEMPERATURE IN CENTIGRADE
AFB    - AIR FORCE BASE
         LUKE AFB IS LUKE AIR FORCE BASE
         DAVIS-MONTHAN IS DAVIS-MONTHAN AIR FORCE BASE
NAS    - NAVAL AIR STATION
         EL CENTRO NAS IS EL CENTRO NAVAL AIR STATION
N/A    - NOT AVAILABLE




USA.gov is the U.S. government's official web portal to all federal, state and local government web resources and services.